EW7199 Weather Reports


Display with metric or nautical units.
time (UTC)temp
F
wind
direction
speed
MPH
gust
MPH
rain 1hr
in
rain 24hr
in
rain mn
in
humidity
%
barometer
mb
20260507145410 69 111 2.0 3.0 0.00 0.13 0.13 45 1014.7
20260507144909 69 132 2.0 3.0 0.00 0.13 0.13 44 1014.7
20260507144413 69 125 3.0 5.0 0.00 0.13 0.13 44 1014.7
20260507143909 70 132 3.0 3.0 0.00 0.13 0.13 45 1014.6
20260507143408 69 120 2.0 3.0 0.00 0.13 0.13 44 1014.5
20260507142909 69 127 2.0 3.0 0.00 0.13 0.13 45 1014.6
20260507142408 69 130 3.0 6.0 0.00 0.13 0.13 41 1014.7
20260507141908 69 141 3.0 3.0 0.00 0.13 0.13 43 1014.8
20260507141409 70 139 3.0 5.0 0.00 0.13 0.13 44 1014.9
20260507140910 70 124 2.0 5.0 0.00 0.13 0.13 43 1015.0
20260507140410 69 119 2.0 6.0 0.00 0.13 0.13 44 1015.0
20260507135908 69 134 4.0 6.0 0.00 0.13 0.13 43 1014.9
20260507134409 70 210 2.0 5.0 0.00 0.13 0.13 45 1015.0
20260507133909 70 125 1.0 3.0 0.00 0.13 0.13 45 1015.1
20260507133409 70 109 2.0 6.0 0.00 0.13 0.13 45 1015.2
20260507132909 70 167 2.0 3.0 0.00 0.13 0.13 46 1015.2
20260507130910 69 139 2.0 6.0 0.00 0.13 0.13 54 1015.1
20260507130412 69 134 2.0 3.0 0.00 0.13 0.13 54 1015.2
20260507125909 69 135 2.0 3.0 0.00 0.13 0.13 52 1015.2
20260507125410 69 165 2.0 3.0 0.00 0.13 0.13 51 1015.2
20260507124909 69 238 1.0 3.0 0.00 0.13 0.13 54 1015.4
20260507124412 68 145 1.0 3.0 0.00 0.13 0.13 58 1015.5
20260507123909 68 263 1.0 3.0 0.00 0.13 0.13 63 1015.5
20260507123410 67 152 3.0 6.0 0.00 0.13 0.13 64 1015.6
20260507122909 67 139 4.0 7.0 0.00 0.13 0.13 67 1015.7
20260507122410 67 223 3.0 6.0 0.00 0.13 0.13 65 1015.5
20260507121910 67 120 3.0 3.0 0.00 0.13 0.13 69 1015.5
20260507121409 68 130 3.0 6.0 0.00 0.13 0.13 69 1015.6
20260507120910 68 135 2.0 3.0 0.00 0.13 0.13 70 1015.5
20260507120410 67 225 1.0 5.0 0.00 0.13 0.13 69 1015.6
20260507115909 67 165 3.0 5.0 0.00 0.13 0.13 73 1015.7
20260507115409 67 146 3.0 6.0 0.00 0.13 0.13 73 1015.8
20260507114908 66 146 2.0 3.0 0.00 0.13 0.13 77 1016.0
20260507114409 66 109 1.0 5.0 0.00 0.13 0.13 79 1016.1
20260507113910 66 125 2.0 5.0 0.00 0.13 0.13 78 1016.2
20260507113410 66 91 1.0 5.0 0.00 0.13 0.13 80 1016.1
20260507112910 66 154 1.0 3.0 0.00 0.13 0.13 81 1016.0
20260507112409 65 150 2.0 5.0 0.00 0.13 0.13 80 1016.0
20260507111910 65 154 2.0 3.0 0.00 0.13 0.13 80 1016.0
20260507111410 65 147 2.0 3.0 0.00 0.13 0.13 81 1016.2
20260507110910 65 37 2.0 3.0 0.00 0.13 0.13 80 1016.1
20260507110411 65 81 1.0 3.0 0.00 0.13 0.13 81 1016.2
20260507105909 65 233 2.0 3.0 0.00 0.13 0.13 82 1016.3
20260507105410 65 137 2.0 6.0 0.00 0.13 0.13 82 1016.4
20260507104909 65 90 2.0 3.0 0.00 0.13 0.13 83 1016.3
20260507104408 64 186 3.0 6.0 0.00 0.13 0.13 83 1016.3
20260507103910 65 140 3.0 5.0 0.00 0.13 0.13 83 1016.3
20260507103409 65 141 3.0 6.0 0.00 0.13 0.13 83 1016.4
20260507102910 65 161 2.0 3.0 0.00 0.13 0.13 84 1016.3
20260507102409 65 138 2.0 3.0 0.00 0.13 0.13 84 1016.4
20260507101910 65 150 2.0 5.0 0.00 0.13 0.13 84 1016.3
20260507101409 65 129 2.0 5.0 0.00 0.13 0.13 84 1016.1
20260507100909 65 143 3.0 7.0 0.00 0.13 0.13 83 1016.3
20260507100434 65 135 2.0 6.0 0.00 0.13 0.13 84 1016.3
20260507095908 65 138 2.0 7.0 0.00 0.13 0.13 85 1016.4
20260507095409 65 140 4.0 7.0 0.00 0.13 0.13 84 1016.3
20260507094908 65 160 2.0 3.0 0.00 0.13 0.13 86 1016.4
20260507094409 65 137 3.0 3.0 0.00 0.13 0.13 85 1016.4
20260507093909 65 143 2.0 5.0 0.00 0.13 0.13 85 1016.4
20260507093409 64 136 3.0 7.0 0.00 0.13 0.13 86 1016.2
20260507092909 64 154 2.0 6.0 0.00 0.13 0.13 86 1016.2
20260507092408 64 121 3.0 6.0 0.00 0.13 0.13 86 1016.3
20260507091908 64 89 3.0 9.0 0.00 0.13 0.13 86 1016.3
20260507091409 64 111 2.0 6.0 0.00 0.13 0.13 86 1016.1
20260507090909 64 131 3.0 6.0 0.00 0.13 0.13 86 1016.1
20260507085910 64 106 2.0 6.0 0.00 0.13 0.13 87 1016.0
20260507085409 64 117 3.0 7.0 0.00 0.13 0.13 88 1015.7
20260507084909 63 105 2.0 6.0 0.00 0.13 0.13 88 1015.8
20260507084409 63 111 3.0 7.0 0.00 0.13 0.13 88 1015.7
20260507083909 63 113 2.0 6.0 0.00 0.13 0.13 88 1015.6
20260507083409 63 113 2.0 7.0 0.00 0.13 0.13 89 1015.4
20260507082909 63 111 3.0 6.0 0.00 0.13 0.13 89 1015.1
20260507082409 63 95 3.0 7.0 0.00 0.13 0.13 89 1015.2
20260507081910 63 111 3.0 7.0 0.00 0.13 0.13 89 1015.2
20260507080909 63 133 2.0 8.0 0.01 0.13 0.13 90 1015.3
20260507080411 63 114 2.0 8.0 0.01 0.13 0.13 90 1015.3
20260507075909 63 89 3.0 6.0 0.01 0.13 0.13 90 1015.3
20260507075409 63 98 2.0 3.0 0.01 0.13 0.13 90 1015.5
20260507074908 63 247 2.0 3.0 0.01 0.13 0.13 90 1015.5
20260507074410 63 113 1.0 6.0 0.01 0.13 0.13 90 1015.7
20260507073909 63 86 3.0 6.0 0.01 0.13 0.13 90 1015.6
20260507073409 63 88 2.0 3.0 0.01 0.13 0.13 90 1015.8
20260507072909 63 117 3.0 6.0 0.01 0.13 0.13 90 1015.8
20260507072409 63 92 2.0 6.0 0.01 0.13 0.13 90 1015.9
20260507071909 63 99 2.0 5.0 0.01 0.13 0.13 91 1016.0
20260507071408 63 121 3.0 6.0 0.01 0.13 0.13 91 1016.3
20260507070908 63 83 3.0 6.0 0.00 0.12 0.12 91 1016.0
20260507070410 63 83 2.0 3.0 0.00 0.12 0.12 91 1016.8
20260507065909 62 134 2.0 3.0 0.00 0.12 0.12 92 1017.2
20260507065409 62 282 2.0 3.0 0.00 0.12 0.12 92 1017.1
20260507064909 62 102 2.0 3.0 0.00 0.12 0.12 92 1017.0
20260507064410 62 80 3.0 3.0 0.00 0.12 0.12 92 1017.0
20260507063909 62 74 1.0 3.0 0.00 0.12 0.12 92 1017.0
20260507062409 62 85 2.0 3.0 0.00 0.12 0.12 92 1016.9
20260507061908 62 79 2.0 3.0 0.00 0.12 0.12 92 1016.8
20260507060909 61 38 1.0 3.0 0.00 0.12 0.12 92 1016.6
20260507060413 61 58 1.0 3.0 0.00 0.12 0.12 92 1016.6
20260507055408 61 38 2.0 3.0 0.00 0.12 0.12 92 1016.7
20260507054411 61 73 2.0 3.0 0.00 0.12 0.12 92 1016.8
20260507053909 61 84 2.0 3.0 0.00 0.12 0.12 93 1016.9
20260507053408 61 63 1.0 3.0 0.00 0.12 0.12 93 1017.0
20260507052909 61 38 0.0 3.0 0.00 0.12 0.12 93 1016.9
20260507051908 61 90 2.0 3.0 0.00 0.12 0.12 93 1016.8
20260507051409 61 98 1.0 3.0 0.00 0.12 0.12 93 1016.8
20260507050909 61 132 1.0 3.0 0.00 0.12 0.12 93 1016.7
20260507050410 61 126 1.0 3.0 0.00 0.12 0.12 93 1016.6
20260507045908 61 133 1.0 3.0 0.00 0.12 0.12 93 1016.3
20260507045409 61 93 2.0 3.0 0.00 0.12 0.12 93 1015.7
20260507044909 61 67 2.0 3.0 0.00 0.12 0.12 93 1015.3
20260507044409 61 59 2.0 3.0 0.00 0.12 0.12 93 1015.3
20260507043909 61 78 1.0 3.0 0.00 0.12 0.12 93 1015.4
20260507043409 61 57 2.0 3.0 0.00 0.12 0.12 93 1014.9
20260507042909 61 60 2.0 3.0 0.00 0.12 0.12 93 1015.0
20260507042409 61 50 2.0 3.0 0.00 0.12 0.12 93 1014.8
20260507041908 61 64 2.0 3.0 0.01 0.12 0.12 94 1015.0
20260507041408 61 79 2.0 3.0 0.01 0.12 0.12 93 1014.9
20260507040909 61 58 2.0 5.0 0.01 0.12 0.12 93 1015.0
20260507040410 61 70 1.0 3.0 0.01 0.12 0.12 93 1015.5
20260507035408 61 83 2.0 3.0 0.02 0.12 0.12 93 1015.6
20260507034409 61 60 2.0 3.0 0.02 0.12 0.12 93 1015.6
20260507033909 61 88 2.0 3.0 0.02 0.12 0.12 93 1015.4
20260507033408 61 53 2.0 3.0 0.02 0.12 0.12 93 1015.3
20260507032909 61 67 2.0 3.0 0.02 0.12 0.12 93 1015.4
20260507032409 61 54 2.0 3.0 0.02 0.12 0.12 93 1015.4
20260507031908 61 57 2.0 3.0 0.01 0.11 0.11 93 1015.4
20260507031408 61 45 2.0 3.0 0.01 0.11 0.11 93 1015.5
20260507030909 61 77 2.0 3.0 0.01 0.11 0.11 93 1015.7
20260507030410 61 93 2.0 3.0 0.01 0.11 0.11 93 1015.7
20260507025908 61 92 1.0 2.0 0.00 0.10 0.10 93 1015.8
20260507025409 61 94 1.0 3.0 0.00 0.10 0.10 93 1015.9
20260507024409 61 77 1.0 3.0 0.00 0.10 0.10 93 1015.7
20260507023408 61 101 2.0 3.0 0.00 0.10 0.10 93 1015.5
20260507022908 61 103 1.0 3.0 0.02 0.10 0.10 93 1015.5
20260507021908 61 124 2.0 5.0 0.06 0.10 0.10 93 1015.5
20260507021408 61 111 2.0 3.0 0.06 0.10 0.10 93 1015.4
20260507015908 62 119 2.0 5.0 0.07 0.10 0.10 93 1014.7
20260507014908 62 83 2.0 3.0 0.08 0.10 0.10 92 1014.2
20260507013908 62 60 3.0 6.0 0.08 0.10 0.10 92 1013.5
20260507013408 62 53 3.0 6.0 0.08 0.10 0.10 92 1013.3
20260507012407 62 51 2.0 5.0 0.03 0.05 0.05 92 1015.0
20260507011907 62 83 1.0 3.0 0.02 0.04 0.04 92 1015.6
20260507010909 62 5 1.0 3.0 0.01 0.03 0.03 92 1015.5
20260507010409 62 46 2.0 5.0 0.01 0.03 0.03 92 1015.3
20260507005908 62 286 0.0 2.0 0.01 0.03 0.03 92 1015.4
20260507005409 62 270 1.0 3.0 0.00 0.02 0.02 92 1015.3
20260507004909 62 15 1.0 3.0 0.00 0.02 0.02 92 1015.1
20260507004411 62 80 1.0 3.0 0.00 0.02 0.02 92 1015.3
20260507003408 62 112 2.0 3.0 0.00 0.02 0.02 92 1015.0
20260507002912 62 144 1.0 3.0 0.00 0.02 0.02 92 1014.9
20260507002409 62 107 1.0 3.0 0.00 0.02 0.02 92 1014.8
20260507001909 62 166 1.0 3.0 0.00 0.02 0.02 92 1014.9
20260507000909 62 108 1.0 3.0 0.00 0.02 0.02 92 1014.9
20260507000412 62 136 1.0 3.0 0.00 0.02 0.02 92 1015.0
20260506235909 62 100 2.0 3.0 0.00 0.02 0.02 92 1014.9
20260506234909 62 120 2.0 3.0 0.00 0.02 0.02 92 1014.9
20260506234410 62 95 2.0 3.0 0.01 0.02 0.02 92 1014.9
20260506233409 62 111 1.0 3.0 0.01 0.02 0.02 91 1015.0
20260506232915 62 135 2.0 3.0 0.01 0.02 0.02 91 1015.1
20260506231908 62 86 2.0 3.0 0.02 0.02 0.02 91 1014.8
20260506231408 62 70 1.0 3.0 0.02 0.02 0.02 91 1015.0
20260506230909 62 95 2.0 3.0 0.02 0.02 0.02 91 1014.9
20260506230411 63 81 2.0 3.0 0.02 0.02 0.02 90 1014.8
20260506225909 63 86 2.0 3.0 0.02 0.02 0.02 90 1014.8
20260506225407 63 111 2.0 3.0 0.02 0.02 0.02 90 1015.2
20260506224908 63 137 2.0 3.0 0.02 0.02 0.02 90 1015.3
20260506224408 63 96 2.0 3.0 0.01 0.01 0.01 89 1015.3
20260506223908 63 100 1.0 3.0 0.01 0.01 0.01 89 1015.3
20260506223409 63 77 2.0 3.0 0.01 0.01 0.01 89 1015.2
20260506222908 63 93 1.0 2.0 0.01 0.01 0.01 89 1015.3
20260506222409 63 146 2.0 3.0 0.00 0.00 0.00 89 1015.3
20260506221908 63 119 1.0 3.0 0.00 0.00 0.00 88 1015.2
20260506221408 63 86 2.0 3.0 0.00 0.00 0.00 88 1015.2
20260506220909 63 106 2.0 3.0 0.00 0.00 0.00 88 1015.2
20260506220408 63 91 2.0 3.0 0.00 0.00 0.00 88 1015.2
20260506215908 63 85 1.0 3.0 0.00 0.00 0.00 88 1015.2
20260506215409 63 118 1.0 3.0 0.00 0.00 0.00 88 1015.2
20260506214408 63 123 1.0 3.0 0.00 0.00 0.00 88 1015.2
20260506213909 63 152 2.0 3.0 0.00 0.00 0.00 88 1015.1
20260506213408 63 103 2.0 3.0 0.00 0.00 0.00 88 1015.1
20260506212409 63 145 2.0 5.0 0.00 0.00 0.00 88 1015.2
20260506211909 63 142 2.0 3.0 0.00 0.00 0.00 88 1015.2
20260506211407 63 131 2.0 3.0 0.00 0.00 0.00 88 1015.1
20260506210909 63 32 2.0 3.0 0.00 0.00 0.00 88 1015.1
20260506210408 63 143 2.0 5.0 0.00 0.00 0.00 88 1015.2
20260506205908 63 121 2.0 3.0 0.00 0.00 0.00 88 1015.1
20260506205411 63 114 2.0 3.0 0.00 0.00 0.00 88 1015.1
20260506204908 63 135 2.0 3.0 0.00 0.00 0.00 88 1015.1
20260506204410 63 133 2.0 5.0 0.00 0.00 0.00 88 1015.2
20260506203908 63 119 2.0 3.0 0.00 0.00 0.00 88 1015.2
20260506203408 63 114 1.0 3.0 0.00 0.00 0.00 88 1015.2
20260506202908 63 112 2.0 3.0 0.00 0.00 0.00 88 1015.1
20260506201909 63 107 2.0 3.0 0.00 0.00 0.00 88 1015.1
20260506201409 63 120 2.0 3.0 0.00 0.00 0.00 88 1014.9
20260506200409 63 139 2.0 3.0 0.00 0.00 0.00 88 1014.9
20260506195909 63 119 2.0 3.0 0.00 0.00 0.00 88 1014.9
20260506194908 63 119 2.0 3.0 0.00 0.00 0.00 88 1014.8
20260506194408 63 98 2.0 3.0 0.00 0.00 0.00 88 1014.8
20260506193909 63 125 2.0 6.0 0.00 0.00 0.00 88 1014.8
20260506193408 63 121 2.0 5.0 0.00 0.00 0.00 87 1014.8
20260506192909 63 135 2.0 3.0 0.00 0.00 0.00 87 1014.8
20260506192409 63 97 2.0 3.0 0.00 0.00 0.00 87 1014.7
20260506191908 63 112 2.0 3.0 0.00 0.00 0.00 87 1014.8
20260506191409 63 118 2.0 3.0 0.00 0.00 0.00 87 1014.7
20260506190908 63 104 2.0 3.0 0.00 0.00 0.00 87 1014.7
20260506190410 63 67 1.0 3.0 0.00 0.00 0.00 87 1014.6
20260506185908 63 128 2.0 5.0 0.00 0.00 0.00 87 1014.6
20260506185408 63 107 2.0 3.0 0.00 0.00 0.00 87 1014.6
20260506184907 63 110 1.0 5.0 0.00 0.00 0.00 87 1014.5
20260506183908 63 104 2.0 3.0 0.00 0.00 0.00 86 1014.6
20260506183409 63 126 2.0 3.0 0.00 0.00 0.00 86 1014.6
20260506182408 63 108 2.0 3.0 0.00 0.00 0.00 86 1014.6
20260506181908 63 112 2.0 3.0 0.00 0.00 0.00 86 1014.6
20260506181408 63 150 2.0 3.0 0.00 0.00 0.00 86 1014.7
20260506180908 63 113 2.0 5.0 0.00 0.00 0.00 86 1014.6
20260506180413 63 114 3.0 6.0 0.00 0.00 0.00 86 1014.5
20260506175407 63 124 2.0 3.0 0.00 0.00 0.00 86 1014.6
20260506174908 63 144 2.0 5.0 0.00 0.00 0.00 86 1014.6
20260506174409 63 126 2.0 3.0 0.00 0.00 0.00 86 1014.6
20260506173908 63 122 2.0 3.0 0.00 0.00 0.00 86 1014.6
20260506173408 63 87 2.0 5.0 0.00 0.00 0.00 85 1014.5
20260506172907 63 130 1.0 6.0 0.00 0.00 0.00 85 1014.6
20260506172407 63 127 2.0 3.0 0.00 0.00 0.00 85 1014.5
20260506171908 63 173 2.0 3.0 0.00 0.00 0.00 85 1014.5
20260506171407 63 132 2.0 3.0 0.00 0.00 0.00 85 1014.4
20260506165908 63 108 2.0 5.0 0.00 0.00 0.00 85 1014.1
20260506165406 64 108 3.0 9.0 0.00 0.00 0.00 85 1014.2
20260506164908 64 90 2.0 5.0 0.00 0.00 0.00 85 1014.2
20260506163908 64 132 2.0 3.0 0.00 0.00 0.00 85 1014.6
20260506163409 64 127 3.0 6.0 0.00 0.00 0.00 85 1014.6
20260506162908 64 117 3.0 6.0 0.00 0.00 0.00 85 1014.6
20260506162408 64 161 2.0 5.0 0.00 0.00 0.00 85 1014.5
20260506161909 64 131 3.0 7.0 0.00 0.00 0.00 84 1014.5
20260506160908 64 116 2.0 5.0 0.00 0.00 0.00 84 1014.5
20260506160408 64 125 2.0 6.0 0.00 0.00 0.00 84 1014.5
20260506155908 64 107 3.0 5.0 0.00 0.00 0.00 84 1014.6
20260506155408 64 107 3.0 6.0 0.00 0.00 0.00 83 1014.6
20260506154908 64 117 3.0 6.0 0.00 0.00 0.00 83 1014.7
20260506153907 65 117 3.0 12.0 0.00 0.00 0.00 83 1014.5
20260506153408 65 115 2.0 6.0 0.00 0.00 0.00 83 1014.4
20260506152908 65 102 2.0 7.0 0.00 0.00 0.00 83 1014.4
20260506152408 65 128 2.0 6.0 0.00 0.00 0.00 83 1014.5
20260506151407 65 131 2.0 6.0 0.00 0.00 0.00 83 1014.6
20260506150908 65 137 2.0 6.0 0.00 0.00 0.00 83 1014.7
20260506150413 65 133 2.0 5.0 0.00 0.00 0.00 83 1014.7
20260506145907 65 125 2.0 5.0 0.00 0.00 0.00 83 1014.6